Regional Weather Roundup
Issued by NWS Wakefield, VA

Home | Current Version | Previous Version | Graphics & Text | Print | Product List | Glossary On
Versions: 1 2 3 4 5 6 7 8 9 10 11 12 13 14 15 16 17 18 19 20 21 22 23 24 25 26 27 28
000
ASUS41 KAKQ 222315
RWRAKQ

REGIONAL WEATHER ROUNDUP
NATIONAL WEATHER SERVICE WAKEFIELD VA
700 PM EDT TUE AUG 22 2017

Note: "fair" indicates few or no clouds below 12,000 feet with no
significant weather and/or obstructions to visibility. * = Denotes
station may not report precipitation (e.g., rain,snow,etc.),
thunder or fog.

VAZ042-051-052>054-056-230000-
NORTHERN VIRGINIA

CITY           SKY/WX    TMP DP  RH WIND       PRES   REMARKS
WASH NATIONAL  PTCLDY    89  75  63 S15       29.84S HX  99
DULLES         PTCLDY    87  71  58 S13       29.84S
FORT BELVOIR   CLEAR     88  72  59 S7        29.84F
QUANTICO       CLEAR     89  75  63 SW13      29.85F HX  99
FREDERICKSBRG* CLEAR     89  73  58 S7        29.86S HX  96
STAFFORD*      CLEAR     87  70  57 S7G17     29.90S
WARRENTON      CLEAR     89  70  53 S7        29.85S
CULPEPER*      CLEAR     91  70  50 S7        29.86S HX  97
MANASSAS*      CLEAR     87  73  62 S12       29.84F
LEESBURG*      CLEAR     90  73  58 S13       29.85R HX  98
WINCHESTER     MOSUNNY   86  64  48 SW7       29.84R
FRONT ROYAL*   CLEAR     88  68  51 SW7       29.84S
LURAY*         CLEAR     88  66  48 S10       29.86F
$$

VAZ048-049-060>072-079>083-230000-
CENTRAL AND SOUTH CENTRAL VIRGINIA

CITY           SKY/WX    TMP DP  RH WIND       PRES   REMARKS
RICHMOND       PTCLDY    87  72  60 S12       29.90F
CHESTERFIELD*  FAIR      87  72  60 S7        29.91F
PETERSBURG*    CLEAR     86  71  60 S5        29.92F
HANOVER        CLEAR     88  68  51 S14       29.90S
TAPPAHANNOCK*  CLEAR     89  62  40 S8        29.90S
QUINTON*       FAIR     N/A N/A N/A MISG      29.90S
CHARLOTTSVILLE MOSUNNY   91  67  44 SW10      29.87F
GORDONSVILLE*  PTCLDY    90  70  52 S10       29.86S HX  95
ORANGE*        CLEAR     88  68  51 S9        29.86F
LOUISA*        PTCLDY    88  70  55 S6        29.88S
BUMPASS*       FAIR      86  73  65 S6        29.88S
FARMVILLE*     SUNNY     89  60  37 S8        29.89F
CREWE*         FAIR      86  66  50 S5        29.92S
FORT PICKETT*  FAIR     N/A N/A N/A S7        29.93S
CHASE CITY*    FAIR      88  70  54 CALM      29.94S
CLARKSVILLE*   FAIR      88  72  58 S3        29.93S
SOUTH HILL*    CLEAR     85  76  72 S6        29.99S HX  95
LAWRENCEVILLE* FAIR      85  74  68 S3        29.93S
EMPORIA*       CLEAR     86  73  66 CALM      29.94S
$$

VAZ088>098-230000-
SOUTHEAST VIRGINIA

CITY           SKY/WX    TMP DP  RH WIND       PRES   REMARKS
NORFOLK        PTCLDY    89  73  59 S15       29.91F HX  97
VIRGINIA BEACH PTCLDY    87  72  60 S9        29.91F
NORFOLK NAVAL  PTCLDY    88  72  58 SW9G20    29.93S
WEST POINT*    CLEAR     87  71  59 S6        29.91F
SALUDA*        FAIR      86  75  70 S7        29.90S HX  95
NEWPORT NEWS   CLEAR     87  72  60 SW13      29.91F
LANGLEY AFB    CLEAR     88  73  61 SW14      29.91S HX  95
FORT EUSTIS    CLEAR     89  75  62 S6        29.89F HX  99
WILLIAMSBURG*  CLEAR     90  73  58 SW3       29.92F HX  98
HR EXEC AP*    FAIR      86  73  66 SW10      29.89F
FRANKLIN*      PTCLDY    86  74  68 S9        29.93S
US460-WAKEFLD  CLEAR     86  75  69 S5        29.92S HX  95
$$

VAZ020-022-025-037-045-230000-
WEST CENTRAL AND SOUTHWEST VIRGINIA

CITY           SKY/WX    TMP DP  RH WIND       PRES   REMARKS
STAUNTON*      SUNNY     87  67  51 SW10      29.93R
WAYNESBORO*    CLEAR     88  67  51 S6        29.94S
HOT SPRINGS VA SUNNY     77  57  50 SW7       30.09F
LYNCHBURG      SUNNY     87  67  51 S14       29.93F
DANVILLE       MOSUNNY   86  73  65 S3        29.93F
SOUTH BOSTON*  FAIR      88  70  54 CALM      29.93S
MARTINSVILLE   SUNNY     85  71  62 CALM      29.98F
ROANOKE        MOSUNNY   90  65  43 SW10      29.95F
BLACKSBURG     SUNNY     83  65  53 SW5       30.04F
DUBLIN*        SUNNY     85  62  45 SW10G16   30.02F
MARION*        SUNNY     82  47  29 W8        30.07F
HILLSVILLE*    SUNNY     79  62  56 CALM      30.05F
RICHLANDS*     FAIR      79  51  37 SW5       30.05F
WISE*          LGT RAIN  79  63  57 CALM      30.08R
ABINGDON*      SUNNY     85  64  50 W7        30.02F
$$

MDZ021>025-VAZ099-100-230000-
SOUTHERN MARYLAND AND THE DELMARVA PENINSULA

CITY           SKY/WX    TMP DP  RH WIND       PRES   REMARKS
PATUXENT RIVER PTCLDY    86  74  67 S10       29.87S
BAY BRIDGE APT CLEAR     88  77  70 S13G18    29.84F HX 100
LEONARDTOWN    CLEAR     86  72  62 SW6       29.90S
DOVER          CLEAR     86  72  62 S17       29.83F
GEORGETOWN     CLEAR     86  70  58 S13       29.88F
EASTON         PTCLDY    88  73  62 S14G21    29.90S HX  96
CAMBRIDGE      CLEAR     86  75  70 S9        29.87S HX  95
SALISBURY      CLEAR     84  77  79 S12       29.90S
OCEAN CITY     PTCLDY    80  77  90 S12G23    29.91F
WALLOPS ISLAND PTCLDY    81  79  94 S15       29.92F
ACCOMACK*      CLEAR     83  78  83 S13       29.92S
$$

NCZ012>017-030>032-230000-
NORTH CENTRAL AND EASTERN NORTH CAROLINA

CITY           SKY/WX    TMP DP  RH WIND       PRES   REMARKS
ROANOKE RAPIDS FAIR      86  75  70 S3        29.93S HX  95
RALEIGH        MOSUNNY   90  70  51 S10       29.94S HX  95
ELIZABETH CITY CLEAR     86  75  69 S12       29.95S HX  95
AHOSKIE*         N/A     83  76  78 S7        29.94S
EDENTON*       CLEAR     86  75  69 S13       29.96S HX  95
CURRITUCK*     PTCLDY    86  75  68 SW8       29.94F HX  95
KILL DEVIL HLS CLEAR     84  73  69 S7        29.95S
MANTEO         PTCLDY    85  75  72 SW20      29.96S
CAPE HATTERAS  CLEAR     84  77  79 SW13G20   29.98F
TARBORO*       NOT AVBL
GOLDSBORO      NOT AVBL
WASHINGTON     CLEAR     85  76  76 S6        29.96S
GREENVILLE     CLEAR     88  73  62 S14       29.97F HX  96
NEW BERN       PTCLDY    82  77  84 S6        29.99S
WILMINGTON     CLEAR     84  73  69 SW10      29.98F
$$

VAZ048-230000-
ELSEWHERE

CITY           SKY/WX    TMP DP  RH WIND       PRES   REMARKS
HARRISBURG PA  CLOUDY    88  71  57 S9        29.78F THUNDER
BALTIMORE      PTCLDY    88  70  55 S10G17    29.82S
ANNAPOLIS      CLEAR     87  80  79 S9        29.83F HX 103
ANDREWS AFB    CLEAR     87  71  58 S15       29.85S
PHILADELPHIA   PTCLDY    88  71  57 S13G22    29.83R
HENDERSON NC   SUNNY     84  70  62 S5        29.94S
GREENSBORO     MOSUNNY   88  69  53 SW12      29.95F
ROCKY MOUNT    CLEAR     87  75  67 S8        29.94S HX  96
$$

VAZ100-230000-
MARINE

STATION/POSITION TIME  TEMP    WIND        PRES    WAVE   SWELL
                       AIR SEA DIR/SP/G            HT/PER HT/PER
                 (UTC) (F)     (DEG/KT/KT) (MB)    (FT/S) (FT/S)
BRANDYWINE LGT   2242   85     220/ 16/ 20 1011.6F
CAPE MAY NJ      2248   79 80  180/ 13/ 19 1011.0F
LEWES DE         2242   85 77  200/  8/ 15 1011.4F
15NM E FENWICK I 2250   79 78  190/ 21/ 25 1012.4F   4/ 5   2/11
OCEAN-CITY-INLET 2242   78 80  220/ 15/ 17 1013.2F
WACHAPREAGUE VA  2242   83 87  200/ 16/ 19 1013.2S
THOMAS POINT MD  2300   84 81  180/ 20/ 21   N/A
GOOSES REEF MD   2300   86 82  190/ 12/ 16 1011.7    2/ 3
COVE POINT MD    2242   87     200/ 16/ 19 1012.0F
SOLOMONS ISLAND  2242   87 82  190/ 13/ 17   N/A
BISHOPS HEAD MD  2242   86 85  180/ 18/ 22 1012.0S
PINEY POINT MD   2242          220/ 12/ 14   N/A
POTOMAC MD       2300   86 84  220/ 12/ 14 1011.1    2/ 3
CAMBRIDGE MD     2242   87 84              1012.3F
LEWISETTA VA     2242   87 86  230/ 10/ 12 1011.8S
RAPPAHANNOCK LGT 2242          160/ 13/ 14 1013.5F
STINGRAY PT      2300   87 83  230/ 12/ 14 1012.9    1/ 3
YORK RVR RNG VA  2242   87     220/ 16/ 18 1013.2F
YORKTOWN VA      2242   88 84  200/  9/ 13 1012.5F
JAMESTOWN VA     2300      86  210/  6/  8   N/A     0
DOMINION TERM VA 2242   87     210/  8/ 12 1013.2F
KIPTOPEKE VA     2242      84  180/ 13/ 16   N/A
CHES BAY BRIDGE  2242   87 82  240/ 15/ 17 1012.7F
CAPE HENRY VA    2242   88     210/  7/  9   N/A
WILLOUBY STN VA  2242   88     220/ 11/ 13 1013.1S
S CRANEY ISL VA  2242   88     210/  9/ 13 1012.8F
CAPE HENRY BUOY  2300      81                N/A     4/11   2/11
1ST LANDING BUOY 2300   87 82              1012.7    2/ 4
64NM E OF VA BCH 2250   80 80  190/ 14/ 16 1014.6F   3/11   3/11
DUCK PIER NC     2242   86 76  210/ 16/ 19 1013.6S
44056 DUCK FRF   2300      81                N/A     3/11   2/11
OREGON INLET NC  2242   84 86  190/ 17/ 21 1014.6F
HATTERAS NC      2242   83 84  210/ 11/ 16 1015.3F
DIAMOND SHLS NC  2250   84 86  200/ 16/ 17 1015.1F   4/10   3/10
CAPE LOOKOUT NC  2300   83     190/ 12/ 16 1015.1F
$$




USA.gov is the U.S. government's official web portal to all federal, state and local government web resources and services.